Satellite-Ground Cal/Val Region Overpasses Predictions

Prediction of Satellite NPP Overpassing Cal/Val Region: PacNW

Region Location: (Latitude: 10.00, Longitude: 139.50) to (Latitude: 22.70, Longitude: 165.60).

Table of predicted overpasses for the next 14.0 days since TLE Epoch: 5/15/2021
Interval Starting Time Starting Location Ending Time Ending Location
1 05/15/2021 03:54:51 ( 10.04, 140.91) 05/15/2021 03:56:34 ( 16.09, 139.51)
2 05/15/2021 14:45:14 ( 22.70, 163.53) 05/15/2021 14:48:50 ( 10.02, 160.51)
3 05/16/2021 03:35:50 ( 10.01, 145.67) 05/16/2021 03:39:26 ( 22.70, 142.65)
4 05/16/2021 14:29:24 ( 11.45, 165.60) 05/16/2021 14:29:48 ( 10.04, 165.28)
5 05/16/2021 16:07:43 ( 22.66, 142.90) 05/16/2021 16:11:18 ( 10.04, 139.90)
6 05/17/2021 03:16:49 ( 10.05, 150.42) 05/17/2021 03:20:24 ( 22.67, 147.41)
7 05/17/2021 15:48:42 ( 22.68, 147.66) 05/17/2021 15:52:18 ( 10.01, 144.65)
8 05/18/2021 02:57:48 ( 10.03, 155.18) 05/18/2021 03:01:23 ( 22.65, 152.18)
9 05/18/2021 15:29:41 ( 22.65, 152.41) 05/18/2021 15:33:16 ( 10.03, 149.41)
10 05/19/2021 02:38:46 ( 10.01, 159.94) 05/19/2021 02:42:22 ( 22.69, 156.92)
11 05/19/2021 15:10:40 ( 22.67, 157.17) 05/19/2021 15:14:15 ( 10.05, 154.17)
12 05/20/2021 02:19:46 ( 10.04, 164.69) 05/20/2021 02:23:21 ( 22.67, 161.68)
13 05/20/2021 14:51:38 ( 22.69, 161.93) 05/20/2021 14:55:14 ( 10.01, 158.91)
14 05/21/2021 03:42:14 ( 10.03, 144.07) 05/21/2021 03:45:49 ( 22.65, 141.07)
15 05/21/2021 14:33:53 ( 18.26, 165.60) 05/21/2021 14:36:13 ( 10.03, 163.67)
16 05/21/2021 16:14:08 ( 22.65, 141.30) 05/21/2021 16:16:14 ( 15.26, 139.51)
17 05/22/2021 03:23:13 ( 10.01, 148.83) 05/22/2021 03:26:49 ( 22.69, 145.81)
18 05/22/2021 15:55:07 ( 22.67, 146.06) 05/22/2021 15:58:42 ( 10.05, 143.06)
19 05/23/2021 03:04:12 ( 10.05, 153.58) 05/23/2021 03:07:47 ( 22.67, 150.57)
20 05/23/2021 15:36:05 ( 22.69, 150.82) 05/23/2021 15:39:41 ( 10.01, 147.81)
21 05/24/2021 02:45:11 ( 10.03, 158.34) 05/24/2021 02:48:46 ( 22.65, 155.33)
22 05/24/2021 15:17:05 ( 22.65, 155.57) 05/24/2021 15:20:40 ( 10.03, 152.57)
23 05/25/2021 02:26:09 ( 10.01, 163.10) 05/25/2021 02:29:45 ( 22.69, 160.08)
24 05/25/2021 14:58:03 ( 22.67, 160.33) 05/25/2021 15:01:38 ( 10.05, 157.33)
25 05/26/2021 02:09:52 ( 19.62, 165.59) 05/26/2021 02:10:44 ( 22.67, 164.84)
26 05/26/2021 03:48:39 ( 10.05, 142.47) 05/26/2021 03:52:11 ( 22.50, 139.51)
27 05/26/2021 14:39:02 ( 22.69, 165.09) 05/26/2021 14:42:38 ( 10.01, 162.07)
28 05/26/2021 16:20:32 ( 22.69, 139.71) 05/26/2021 16:20:46 ( 21.87, 139.51)
29 05/27/2021 03:29:37 ( 10.03, 147.23) 05/27/2021 03:33:12 ( 22.66, 144.22)
30 05/27/2021 16:01:31 ( 22.65, 144.46) 05/27/2021 16:05:06 ( 10.03, 141.46)
31 05/28/2021 03:10:36 ( 10.02, 151.99) 05/28/2021 03:14:12 ( 22.70, 148.97)
